AWQ548 WADD-YPPH

Flight info

Callsign AWQ548
Flight time N/A
Altitude 35000
Route LIPRA1A LIPRA G578 EGATU L514 AVPAL Q38 JULIM JULIM6A
Aircraft A320/M-SDE3FGHIRWY/LB1

Departure

Time 2026-04-30 13:18
Airport Denpasar I Gusti Ngurah Rai International Airport (WADD)

Arrival

Time N/A
Airport Perth International Airport (YPPH)
Time Latitude Longitude Altitude Speed Heading
2026-04-30 12:59 -8.74533 115.17590 33 ft 0 kts 358°
2026-04-30 13:08 -8.74544 115.17591 33 ft 3 kts 358°
2026-04-30 13:08 -8.74565 115.17592 30 ft 3 kts 358°
2026-04-30 13:08 -8.74585 115.17593 33 ft 3 kts 357°
2026-04-30 13:09 -8.74603 115.17593 33 ft 2 kts 357°
2026-04-30 13:09 -8.74622 115.17596 29 ft 3 kts 333°
2026-04-30 13:09 -8.74633 115.17602 32 ft 3 kts 306°
2026-04-30 13:09 -8.74641 115.17620 30 ft 3 kts 274°
2026-04-30 13:10 -8.74641 115.17634 32 ft 1 kts 268°
2026-04-30 13:10 -8.74641 115.17638 32 ft 0 kts 268°
2026-04-30 13:12 -8.74642 115.17621 30 ft 8 kts 267°
2026-04-30 13:12 -8.74645 115.17561 32 ft 8 kts 269°
2026-04-30 13:12 -8.74646 115.17494 32 ft 10 kts 267°
2026-04-30 13:13 -8.74653 115.17322 32 ft 16 kts 267°
2026-04-30 13:13 -8.74655 115.17187 32 ft 20 kts 271°
2026-04-30 13:13 -8.74670 115.16927 32 ft 16 kts 267°
2026-04-30 13:14 -8.74674 115.16820 32 ft 15 kts 268°
2026-04-30 13:14 -8.74679 115.16696 32 ft 20 kts 267°
2026-04-30 13:14 -8.74691 115.16400 32 ft 21 kts 269°
2026-04-30 13:15 -8.74699 115.16250 33 ft 21 kts 266°
2026-04-30 13:15 -8.74710 115.15947 33 ft 23 kts 267°
2026-04-30 13:15 -8.74718 115.15770 32 ft 27 kts 268°
2026-04-30 13:16 -8.74727 115.15576 32 ft 28 kts 267°
2026-04-30 13:16 -8.74747 115.15408 30 ft 18 kts 233°
2026-04-30 13:16 -8.74836 115.15391 29 ft 14 kts 178°
2026-04-30 13:17 -8.74887 115.15702 28 ft 66 kts 89°
2026-04-30 13:17 -8.74860 115.16379 28 ft 125 kts 88°
2026-04-30 13:17 -8.74791 115.18228 449 ft 165 kts 90°
2026-04-30 13:18 -8.74734 115.19764 1329 ft 166 kts 88°
2026-04-30 13:18 -8.74621 115.22370 1890 ft 206 kts 88°
2026-04-30 13:18 -8.74556 115.23911 2144 ft 228 kts 88°
2026-04-30 13:19 -8.74485 115.25595 2456 ft 251 kts 88°
2026-04-30 13:19 -8.74411 115.27398 3050 ft 260 kts 88°
2026-04-30 13:19 -8.74580 115.29222 3751 ft 265 kts 108°
2026-04-30 13:19 -8.75513 115.30863 4506 ft 270 kts 134°
2026-04-30 13:20 -8.77110 115.31918 5234 ft 276 kts 161°
2026-04-30 13:20 -8.78987 115.32370 5954 ft 279 kts 167°
2026-04-30 13:20 -8.80896 115.32771 6666 ft 282 kts 167°
2026-04-30 13:20 -8.82824 115.33172 7379 ft 284 kts 167°
2026-04-30 13:21 -8.84766 115.33580 8084 ft 286 kts 167°
2026-04-30 13:21 -8.86724 115.33994 8773 ft 289 kts 167°
2026-04-30 13:21 -8.88699 115.34416 9458 ft 291 kts 166°
2026-04-30 13:22 -8.92754 115.35288 10326 ft 314 kts 166°
2026-04-30 13:22 -8.94963 115.35766 10451 ft 335 kts 166°
2026-04-30 13:22 -8.98921 115.36619 11014 ft 354 kts 166°
2026-04-30 13:23 -9.01346 115.37140 11543 ft 358 kts 166°
2026-04-30 13:23 -9.06253 115.38195 12652 ft 363 kts 166°
2026-04-30 13:24 -9.11274 115.39274 13744 ft 369 kts 166°